Tracking 23893 objects as of 29-Nov-2021
HD Live streaming from Space Station
objects crossing your sky now

THORAD AGENA D DEB

Track THORAD AGENA D DEB now!
10-day predictions


NORAD ID: 4276
Int'l Code: 1969-082DK
Perigee: 644.9 km
Apogee: 682.3 km
Inclination: 70.1 °
Period: 97.9 minutes
Semi major axis: 7034 km
RCS: 0.039 m2 (small)
Launch date: September 30, 1969
Source: United States (US)
Launch site: AIR FORCE WESTERN TEST RANGE (AFWTR)

Note: This is SATELLITE DEBRIS
aabbcc
Your satellite tracking list
Your tracking list is empty




NASA's NSSDC Master Catalog

Two Line Element Set (TLE):
1 04276U 69082DK  21332.57805242  .00001457  00000-0  24532-3 0  9994
2 04276  70.0629  83.3524 0026586 187.1304 172.9468 14.71442417735457
Source of the keplerian elements: AFSPC